Flag for Brunei Weather past 2 weeks in Bandar Seri Begawan, Brunei

Now
81 °F

Passing clouds.


Feels Like: 85 °F
Forecast: 82 / 92 °F
Wind: 1 mph from Southwest

Location: Brunei Airport

Current Time: Jul 3, 2015 at 12:53:09 AM

Latest Report: Jul 3, 2015 at 12:00 AM


Visibility: N/A

Pressure: 29.89 "Hg

Humidity: 79%

Dew point: 73 °F

Location of Bandar Seri BegawanLocation

Historic Weather in Bandar Seri Begawan — Graph

°F

Bandar Seri Begawan temperature yesterday

Maximum temperature yesterday: 93 °F (at 1:30 PM)
Minimum temperature yesterday: 81 °F (at 1:00 AM)
Average temperature yesterday: 85 °F

Past Weeks' High & Low Weather Summary

 TemperatureHumidityPressure
High95 °F (Jun 24, 1:30 PM)100% (Jun 18, 3:30 AM)29.98 "Hg (Jun 18, 3:30 AM)
Low77 °F (Jun 18, 3:30 AM)47% (Jun 24, 2:00 PM)29.71 "Hg (Jun 19, 5:30 PM)
Average85 °F79%29.85 "Hg
* Reported Jun 17 11:00 PM — Jul 2 11:30 PM, Bandar Seri Begawan, Weather by CustomWeather, © 2015

Note: Actual official high and low records may vary slightly from our data, if they occured in-between our weather recording intervals... More about our weather records

Advertising

Bandar Seri Begawan weather history for previous 24 hours

 ConditionsComfort  
Time TempWeatherWind HumidityBarometerVisibility
11:30 PM
Thu, Jul 2
81 °FPassing clouds.2 mph79%29.89 "HgN/A
11:00 PM82 °FPassing clouds.5 mph74%29.86 "HgN/A
10:30 PM84 °FPassing clouds.6 mph70%29.86 "HgN/A
10:00 PM84 °FPassing clouds.5 mph66%29.86 "HgN/A
9:30 PM84 °FPassing clouds.3 mph66%29.86 "HgN/A
9:00 PM84 °FPassing clouds.3 mph66%29.86 "HgN/A
8:30 PM86 °FPassing clouds.3 mph62%29.86 "HgN/A
8:00 PM84 °FPassing clouds.3 mph70%29.83 "HgN/A
7:30 PM86 °FPartly cloudy.5 mph70%29.83 "HgN/A
7:00 PM86 °FPartly cloudy.5 mph70%29.83 "HgN/A
6:30 PM88 °FBroken clouds.5 mph62%29.80 "HgN/A
6:00 PM88 °FPartly sunny.5 mph62%29.80 "HgN/A
5:00 PM90 °FPartly sunny.6 mph59%29.77 "HgN/A
4:30 PM90 °FPartly sunny.6 mph63%29.80 "HgN/A
4:00 PM91 °FPartly sunny.8 mph56%29.77 "HgN/A
3:30 PM91 °FBroken clouds.10 mph56%29.77 "HgN/A
3:00 PM91 °FBroken clouds.12 mph56%29.77 "HgN/A
2:30 PM93 °FPartly sunny.14 mph49%29.80 "HgN/A
2:00 PM93 °FPartly sunny.13 mph53%29.80 "HgN/A
1:30 PM93 °FPartly sunny.6 mph49%29.80 "HgN/A
1:00 PM91 °FPartly sunny.14 mph52%29.83 "HgN/A
12:30 PM91 °FPartly sunny.13 mph56%29.83 "HgN/A
12:00 PM91 °FPartly sunny.12 mph56%29.83 "HgN/A
11:30 AM88 °FPartly sunny.10 mph62%29.86 "Hg6 mi
11:00 AM88 °FPartly sunny.10 mph62%29.86 "Hg6 mi
10:30 AM86 °FPartly sunny.9 mph70%29.86 "HgN/A
10:00 AM86 °FBroken clouds.10 mph70%29.86 "Hg6 mi
9:30 AM84 °FPartly sunny.6 mph74%29.89 "Hg6 mi
9:00 AM82 °FPartly sunny.3 mph84%29.89 "Hg6 mi
8:30 AM82 °FBroken clouds.2 mph84%29.89 "Hg6 mi
8:00 AM82 °FPartly sunny.2 mph84%29.89 "Hg6 mi
7:30 AM81 °FPartly sunny.2 mph89%29.86 "HgN/A
7:00 AM81 °FPartly sunny.5 mph89%29.86 "HgN/A
6:30 AM81 °FPartly sunny.2 mph89%29.86 "HgN/A
6:00 AM81 °FPartly cloudy.2 mph89%29.83 "HgN/A
5:30 AM81 °FPartly cloudy.3 mph89%29.83 "HgN/A
5:00 AM81 °FPassing clouds.5 mph89%29.83 "HgN/A
4:30 AM81 °FPassing clouds.5 mph89%29.83 "HgN/A
4:00 AM81 °FPassing clouds.5 mph84%29.83 "HgN/A
3:30 AM81 °FPassing clouds.3 mph84%29.86 "HgN/A
3:00 AM81 °FPassing clouds.5 mph84%29.86 "HgN/A
2:30 AM81 °FPassing clouds.5 mph84%29.86 "HgN/A
2:00 AM81 °FPassing clouds.6 mph84%29.86 "HgN/A
1:30 AM81 °FPassing clouds.6 mph84%29.86 "HgN/A
1:00 AM81 °FPassing clouds.7 mph84%29.89 "HgN/A
12:30 AM82 °FPassing clouds.6 mph79%29.89 "HgN/A
12:00 AM82 °FPassing clouds.7 mph74%29.89 "HgN/A
Weather by CustomWeather, © 2015

See weather overviewHow to use our weather pages